| time (UTC) | temp F | wind direction | speed MPH | gust MPH | rain 1hr in | rain 24hr in | rain mn in | humidity % | barometer mb |
| 20260903195222 | 74 | 271 | 7.0 | 20.0 | 0.00 | 0.16 | 0.13 | 67 | 1011.1 |
| 20260903194723 | 74 | 236 | 7.0 | 20.0 | 0.00 | 0.16 | 0.13 | 66 | 1011.1 |
| 20260903194222 | 74 | 253 | 8.0 | 16.0 | 0.00 | 0.16 | 0.13 | 65 | 1011.1 |
| 20260903193721 | 75 | 238 | 7.0 | 15.0 | 0.00 | 0.16 | 0.13 | 62 | 1011.1 |
| 20260903193453 | 77 | 245 | 5.0 | 14.0 | 0.00 | 0.16 | 0.13 | 64 | 1011.1 |
| 20260903192721 | 77 | 327 | 6.0 | 17.0 | 0.00 | 0.16 | 0.13 | 68 | 1011.2 |
| 20260903192221 | 76 | 305 | 8.0 | 21.0 | 0.00 | 0.16 | 0.13 | 68 | 1011.2 |
| 20260903191719 | 76 | 5 | 6.0 | 21.0 | 0.00 | 0.16 | 0.13 | 63 | 1011.2 |
| 20260903191219 | 76 | 233 | 3.0 | 9.0 | 0.00 | 0.16 | 0.13 | 70 | 1011.1 |
| 20260903190717 | 74 | 317 | 3.0 | 9.0 | 0.00 | 0.16 | 0.13 | 73 | 1011.1 |
| 20260903190217 | 75 | 268 | 4.0 | 12.0 | 0.00 | 0.16 | 0.13 | 71 | 1011.0 |
| 20260903185715 | 76 | 69 | 7.0 | 18.0 | 0.00 | 0.16 | 0.13 | 71 | 1011.1 |
| 20260903185215 | 76 | 225 | 7.0 | 18.0 | 0.00 | 0.16 | 0.13 | 67 | 1011.1 |
| 20260903184717 | 76 | 272 | 7.0 | 18.0 | 0.00 | 0.16 | 0.13 | 66 | 1011.0 |
| 20260903184217 | 76 | 238 | 8.0 | 15.0 | 0.00 | 0.16 | 0.13 | 70 | 1011.1 |
| 20260903183716 | 75 | 229 | 8.0 | 15.0 | 0.00 | 0.16 | 0.13 | 68 | 1011.1 |
| 20260903183209 | 76 | 236 | 7.0 | 14.0 | 0.00 | 0.16 | 0.13 | 74 | 1011.0 |
| 20260903182700 | 75 | 238 | 8.0 | 17.0 | 0.00 | 0.16 | 0.13 | 72 | 1011.0 |
| 20260903181905 | 76 | 243 | 7.0 | 15.0 | 0.00 | 0.16 | 0.13 | 73 | 1011.1 |
| 20260903181136 | 75 | 252 | 5.0 | 14.0 | 0.00 | 0.16 | 0.13 | 74 | 1011.2 |
| 20260903180626 | 76 | 250 | 5.0 | 10.0 | 0.00 | 0.16 | 0.13 | 75 | 1011.2 |
| 20260903180120 | 74 | 315 | 5.0 | 12.0 | 0.00 | 0.16 | 0.13 | 79 | 1011.3 |
| 20260903175614 | 72 | 243 | 4.0 | 12.0 | 0.00 | 0.16 | 0.13 | 82 | 1011.4 |
| 20260903175326 | 72 | 227 | 4.0 | 11.0 | 0.00 | 0.16 | 0.13 | 79 | 1011.3 |
| 20260903174559 | 73 | 288 | 5.0 | 13.0 | 0.00 | 0.16 | 0.13 | 78 | 1011.3 |
| 20260903174053 | 74 | 251 | 7.0 | 17.0 | 0.00 | 0.16 | 0.13 | 78 | 1011.3 |
| 20260903173542 | 76 | 280 | 8.0 | 17.0 | 0.00 | 0.16 | 0.13 | 75 | 1011.3 |
| 20260903173036 | 75 | 257 | 7.0 | 15.0 | 0.00 | 0.16 | 0.13 | 73 | 1011.4 |
| 20260903172754 | 75 | 236 | 6.0 | 15.0 | 0.00 | 0.16 | 0.13 | 80 | 1011.4 |
| 20260903172020 | 76 | 250 | 6.0 | 12.0 | 0.00 | 0.16 | 0.13 | 80 | 1011.4 |
| 20260903171514 | 75 | 255 | 7.0 | 12.0 | 0.00 | 0.16 | 0.13 | 81 | 1011.4 |
| 20260903171008 | 74 | 251 | 7.0 | 12.0 | 0.00 | 0.16 | 0.13 | 85 | 1011.5 |
| 20260903170458 | 74 | 254 | 7.0 | 16.0 | 0.00 | 0.16 | 0.13 | 81 | 1011.4 |
| 20260903165952 | 74 | 235 | 7.0 | 16.0 | 0.00 | 0.16 | 0.13 | 86 | 1011.4 |
| 20260903165443 | 73 | 252 | 7.0 | 13.0 | 0.00 | 0.16 | 0.13 | 88 | 1011.5 |
| 20260903164934 | 73 | 223 | 7.0 | 16.0 | 0.00 | 0.16 | 0.13 | 87 | 1011.6 |
| 20260903164657 | 73 | 228 | 6.0 | 16.0 | 0.00 | 0.16 | 0.13 | 87 | 1011.5 |
| 20260903163923 | 72 | 240 | 5.0 | 11.0 | 0.00 | 0.16 | 0.13 | 93 | 1011.5 |
| 20260903163412 | 70 | 240 | 5.0 | 11.0 | 0.00 | 0.16 | 0.13 | 92 | 1011.7 |
| 20260903162906 | 70 | 232 | 5.0 | 9.0 | 0.00 | 0.16 | 0.13 | 92 | 1011.7 |
| 20260903162400 | 70 | 222 | 5.0 | 9.0 | 0.00 | 0.16 | 0.13 | 93 | 1011.7 |
| 20260903161850 | 70 | 230 | 5.0 | 11.0 | 0.00 | 0.16 | 0.13 | 93 | 1011.7 |
| 20260903161344 | 70 | 218 | 4.0 | 11.0 | 0.00 | 0.16 | 0.13 | 93 | 1011.8 |
| 20260903160839 | 70 | 231 | 4.0 | 8.0 | 0.00 | 0.16 | 0.13 | 94 | 1011.8 |
| 20260903160328 | 70 | 227 | 4.0 | 6.0 | 0.00 | 0.16 | 0.13 | 93 | 1011.8 |
| 20260903160053 | 70 | 202 | 3.0 | 8.0 | 0.00 | 0.16 | 0.13 | 92 | 1011.9 |
| 20260903155538 | 70 | 238 | 3.0 | 8.0 | 0.00 | 0.16 | 0.13 | 93 | 1011.9 |
| 20260903154806 | 69 | 196 | 3.0 | 6.0 | 0.00 | 0.16 | 0.13 | 94 | 1011.9 |
| 20260903154300 | 69 | 236 | 3.0 | 5.0 | 0.00 | 0.16 | 0.13 | 95 | 1012.0 |
| 20260903153754 | 68 | 239 | 3.0 | 8.0 | 0.00 | 0.16 | 0.13 | 94 | 1012.1 |
| 20260903153006 | 69 | 221 | 3.0 | 7.0 | 0.00 | 0.16 | 0.13 | 94 | 1012.1 |
| 20260903152455 | 69 | 239 | 3.0 | 6.0 | 0.00 | 0.16 | 0.13 | 95 | 1012.2 |
| 20260903151722 | 69 | 223 | 1.0 | 5.0 | 0.00 | 0.16 | 0.13 | 96 | 1012.2 |
| 20260903151215 | 69 | 233 | 1.0 | 3.0 | 0.00 | 0.16 | 0.13 | 95 | 1012.2 |
| 20260903150710 | 69 | 234 | 2.0 | 3.0 | 0.00 | 0.16 | 0.13 | 95 | 1012.2 |
| 20260903150425 | 69 | 234 | 2.0 | 5.0 | 0.00 | 0.16 | 0.13 | 95 | 1012.2 |
| 20260903145654 | 68 | 234 | 2.0 | 5.0 | 0.00 | 0.16 | 0.13 | 96 | 1012.2 |
| 20260903145148 | 68 | 265 | 2.0 | 5.0 | 0.00 | 0.16 | 0.13 | 97 | 1012.2 |
| 20260903144638 | 68 | 249 | 2.0 | 5.0 | 0.00 | 0.16 | 0.13 | 97 | 1012.2 |
| 20260903144402 | 68 | 247 | 2.0 | 4.0 | 0.00 | 0.16 | 0.13 | 97 | 1012.1 |
| 20260903143626 | 68 | 252 | 2.0 | 4.0 | 0.00 | 0.16 | 0.13 | 97 | 1012.0 |
| 20260903143116 | 68 | 316 | 2.0 | 7.0 | 0.00 | 0.16 | 0.13 | 98 | 1012.0 |
| 20260903142832 | 67 | 238 | 2.0 | 7.0 | 0.00 | 0.16 | 0.13 | 98 | 1012.0 |
| 20260903142103 | 67 | 257 | 2.0 | 7.0 | 0.00 | 0.16 | 0.13 | 98 | 1012.0 |
| 20260903141554 | 67 | 257 | 2.0 | 7.0 | 0.00 | 0.16 | 0.13 | 99 | 1012.1 |
| 20260903141048 | 67 | 257 | 3.0 | 8.0 | 0.00 | 0.16 | 0.13 | 99 | 1012.2 |
| 20260903140541 | 67 | 259 | 3.0 | 8.0 | 0.00 | 0.16 | 0.13 | 99 | 1012.4 |
| 20260903140032 | 67 | 227 | 4.0 | 9.0 | 0.00 | 0.16 | 0.13 | 99 | 1012.4 |
| 20260903135526 | 67 | 231 | 5.0 | 10.0 | 0.00 | 0.16 | 0.13 | 99 | 1012.4 |
| 20260903135019 | 67 | 252 | 3.0 | 8.0 | 0.00 | 0.16 | 0.13 | 99 | 1012.4 |
| 20260903134510 | 66 | 248 | 2.0 | 7.0 | 0.00 | 0.16 | 0.13 | 99 | 1012.4 |
| 20260903134004 | 66 | 211 | 2.0 | 5.0 | 0.00 | 0.16 | 0.13 | 99 | 1012.5 |
| 20260903133458 | 65 | 264 | 1.0 | 4.0 | 0.00 | 0.16 | 0.13 | 99 | 1012.4 |
| 20260903132441 | 64 | 240 | 0.0 | 2.0 | 0.00 | 0.16 | 0.13 | 99 | 1012.4 |
| 20260903131935 | 64 | 240 | 0.0 | 2.0 | 0.00 | 0.16 | 0.13 | 99 | 1012.4 |
| 20260903131642 | 63 | 240 | 0.0 | 2.0 | 0.00 | 0.16 | 0.13 | 99 | 1012.4 |
| 20260903130919 | 64 | 240 | 0.0 | 2.0 | 0.00 | 0.16 | 0.13 | 99 | 1012.4 |
| 20260903130638 | 63 | 240 | 0.0 | 2.0 | 0.00 | 0.16 | 0.13 | 99 | 1012.4 |
| 20260903125902 | 63 | 240 | 0.0 | 2.0 | 0.00 | 0.16 | 0.13 | 99 | 1012.4 |
| 20260903125356 | 64 | 241 | 1.0 | 3.0 | 0.00 | 0.16 | 0.13 | 99 | 1012.5 |
| 20260903125110 | 63 | 241 | 1.0 | 3.0 | 0.00 | 0.16 | 0.13 | 99 | 1012.4 |
| 20260903124341 | 63 | 241 | 1.0 | 3.0 | 0.00 | 0.16 | 0.13 | 99 | 1012.4 |
| 20260903124056 | 63 | 241 | 1.0 | 3.0 | 0.00 | 0.16 | 0.13 | 99 | 1012.4 |
| 20260903123329 | 63 | 241 | 1.0 | 3.0 | 0.00 | 0.16 | 0.13 | 99 | 1012.4 |
| 20260903122818 | 63 | 241 | 1.0 | 3.0 | 0.00 | 0.16 | 0.13 | 99 | 1012.5 |
| 20260903122313 | 62 | 242 | 1.0 | 3.0 | 0.00 | 0.16 | 0.13 | 99 | 1012.5 |
| 20260903121807 | 62 | 242 | 2.0 | 4.0 | 0.00 | 0.16 | 0.13 | 99 | 1012.4 |
| 20260903121256 | 62 | 242 | 2.0 | 4.0 | 0.00 | 0.16 | 0.13 | 99 | 1012.4 |
| 20260903120750 | 62 | 236 | 2.0 | 4.0 | 0.00 | 0.16 | 0.13 | 99 | 1012.5 |
| 20260903120512 | 61 | 236 | 2.0 | 4.0 | 0.00 | 0.16 | 0.13 | 99 | 1012.5 |
| 20260903115734 | 61 | 236 | 2.0 | 3.0 | 0.00 | 0.16 | 0.13 | 99 | 1012.5 |
| 20260903115228 | 61 | 236 | 2.0 | 3.0 | 0.00 | 0.16 | 0.13 | 99 | 1012.4 |
| 20260903114723 | 61 | 236 | 2.0 | 3.0 | 0.00 | 0.16 | 0.13 | 99 | 1012.4 |
| 20260903114223 | 61 | 236 | 1.0 | 3.0 | 0.00 | 0.16 | 0.13 | 99 | 1012.4 |
| 20260903113722 | 61 | 236 | 1.0 | 2.0 | 0.00 | 0.16 | 0.13 | 99 | 1012.5 |
| 20260903113223 | 61 | 236 | 1.0 | 2.0 | 0.00 | 0.16 | 0.13 | 99 | 1012.4 |
| 20260903112721 | 61 | 236 | 1.0 | 2.0 | 0.00 | 0.16 | 0.13 | 99 | 1012.5 |
| 20260903112220 | 61 | 236 | 0.0 | 2.0 | 0.00 | 0.16 | 0.13 | 99 | 1012.5 |
| 20260903111720 | 61 | 236 | 0.0 | 1.0 | 0.00 | 0.16 | 0.13 | 99 | 1012.5 |
| 20260903111222 | 61 | 236 | 0.0 | 1.0 | 0.00 | 0.16 | 0.13 | 99 | 1012.5 |
| 20260903110719 | 61 | 236 | 0.0 | 2.0 | 0.00 | 0.16 | 0.13 | 99 | 1012.5 |
| 20260903110440 | 61 | 236 | 0.0 | 2.0 | 0.00 | 0.16 | 0.13 | 99 | 1012.5 |
| 20260903105717 | 61 | 236 | 1.0 | 2.0 | 0.00 | 0.16 | 0.13 | 99 | 1012.4 |
| 20260903105217 | 61 | 236 | 1.0 | 2.0 | 0.00 | 0.16 | 0.13 | 99 | 1012.4 |
| 20260903104714 | 60 | 235 | 1.0 | 2.0 | 0.00 | 0.16 | 0.13 | 99 | 1012.4 |
| 20260903104205 | 60 | 235 | 1.0 | 2.0 | 0.00 | 0.16 | 0.13 | 99 | 1012.4 |
| 20260903103929 | 60 | 235 | 1.0 | 2.0 | 0.00 | 0.16 | 0.13 | 99 | 1012.4 |
| 20260903103205 | 60 | 235 | 1.0 | 2.0 | 0.00 | 0.16 | 0.13 | 99 | 1012.2 |
| 20260903102702 | 60 | 235 | 1.0 | 3.0 | 0.00 | 0.16 | 0.13 | 99 | 1012.2 |
| 20260903102203 | 60 | 235 | 1.0 | 3.0 | 0.00 | 0.16 | 0.13 | 99 | 1012.2 |
| 20260903101924 | 60 | 235 | 2.0 | 3.0 | 0.00 | 0.16 | 0.13 | 99 | 1012.4 |
| 20260903101202 | 60 | 235 | 2.0 | 4.0 | 0.00 | 0.16 | 0.13 | 99 | 1012.4 |
| 20260903100702 | 60 | 235 | 3.0 | 4.0 | 0.00 | 0.16 | 0.13 | 99 | 1012.4 |
| 20260903100204 | 60 | 235 | 3.0 | 5.0 | 0.00 | 0.16 | 0.13 | 99 | 1012.4 |
| 20260903095659 | 60 | 244 | 2.0 | 5.0 | 0.00 | 0.16 | 0.13 | 99 | 1012.5 |
| 20260903095200 | 60 | 244 | 2.0 | 4.0 | 0.00 | 0.16 | 0.13 | 99 | 1012.2 |
| 20260903094923 | 60 | 245 | 2.0 | 3.0 | 0.00 | 0.16 | 0.13 | 99 | 1012.2 |
| 20260903094158 | 60 | 246 | 1.0 | 3.0 | 0.00 | 0.16 | 0.13 | 99 | 1012.2 |
| 20260903093659 | 60 | 246 | 1.0 | 3.0 | 0.00 | 0.16 | 0.13 | 99 | 1012.1 |
| 20260903092658 | 60 | 246 | 1.0 | 3.0 | 0.00 | 0.16 | 0.13 | 99 | 1012.2 |
| 20260903092159 | 60 | 246 | 1.0 | 3.0 | 0.00 | 0.16 | 0.13 | 99 | 1012.1 |
| 20260903091654 | 60 | 246 | 1.0 | 3.0 | 0.00 | 0.16 | 0.13 | 99 | 1012.1 |
| 20260903090654 | 60 | 246 | 2.0 | 4.0 | 0.00 | 0.16 | 0.13 | 99 | 1012.1 |
| 20260903090154 | 60 | 247 | 2.0 | 4.0 | 0.00 | 0.16 | 0.13 | 99 | 1012.1 |
| 20260903085654 | 60 | 236 | 1.0 | 3.0 | 0.00 | 0.16 | 0.13 | 99 | 1012.1 |
| 20260903085153 | 60 | 236 | 1.0 | 2.0 | 0.00 | 0.16 | 0.13 | 99 | 1012.1 |
| 20260903084654 | 60 | 237 | 1.0 | 3.0 | 0.00 | 0.16 | 0.13 | 99 | 1012.2 |
| 20260903084151 | 60 | 236 | 2.0 | 3.0 | 0.00 | 0.16 | 0.13 | 99 | 1012.4 |
| 20260903083649 | 60 | 236 | 2.0 | 3.0 | 0.00 | 0.16 | 0.13 | 99 | 1012.2 |
| 20260903083406 | 60 | 237 | 2.0 | 4.0 | 0.00 | 0.16 | 0.13 | 99 | 1012.4 |
| 20260903082645 | 60 | 238 | 2.0 | 4.0 | 0.00 | 0.16 | 0.13 | 99 | 1012.2 |
| 20260903082400 | 60 | 238 | 2.0 | 4.0 | 0.00 | 0.16 | 0.13 | 99 | 1012.5 |
| 20260903081630 | 60 | 238 | 2.0 | 5.0 | 0.00 | 0.16 | 0.13 | 99 | 1012.5 |
| 20260903081130 | 60 | 239 | 2.0 | 5.0 | 0.00 | 0.16 | 0.13 | 99 | 1012.6 |
| 20260903080631 | 60 | 229 | 2.0 | 4.0 | 0.00 | 0.16 | 0.13 | 99 | 1012.5 |
| 20260903080131 | 60 | 222 | 2.0 | 4.0 | 0.00 | 0.16 | 0.13 | 99 | 1012.6 |
| 20260903075630 | 60 | 217 | 2.0 | 4.0 | 0.01 | 0.16 | 0.13 | 99 | 1012.5 |
| 20260903075130 | 60 | 216 | 2.0 | 3.0 | 0.01 | 0.16 | 0.13 | 99 | 1012.6 |
| 20260903074630 | 60 | 215 | 1.0 | 3.0 | 0.01 | 0.16 | 0.13 | 99 | 1012.7 |
| 20260903074130 | 60 | 215 | 1.0 | 3.0 | 0.01 | 0.16 | 0.13 | 99 | 1012.8 |
| 20260903073630 | 60 | 215 | 2.0 | 4.0 | 0.01 | 0.16 | 0.13 | 99 | 1012.9 |
| 20260903073130 | 60 | 207 | 2.0 | 4.0 | 0.01 | 0.16 | 0.13 | 99 | 1012.9 |
| 20260903072629 | 60 | 206 | 2.0 | 4.0 | 0.01 | 0.16 | 0.13 | 99 | 1012.9 |
| 20260903072129 | 60 | 202 | 2.0 | 4.0 | 0.01 | 0.16 | 0.13 | 99 | 1013.0 |
| 20260903071627 | 60 | 202 | 2.0 | 6.0 | 0.01 | 0.16 | 0.13 | 99 | 1012.9 |
| 20260903071126 | 60 | 205 | 2.0 | 6.0 | 0.01 | 0.16 | 0.13 | 99 | 1013.1 |
| 20260903070625 | 60 | 205 | 2.0 | 4.0 | 0.01 | 0.16 | 0.13 | 99 | 1013.0 |
| 20260903070340 | 60 | 215 | 2.0 | 4.0 | 0.02 | 0.16 | 0.13 | 99 | 1013.0 |
| 20260903065612 | 60 | 214 | 2.0 | 4.0 | 0.01 | 0.15 | 0.12 | 99 | 1013.0 |
| 20260903065103 | 60 | 211 | 2.0 | 4.0 | 0.02 | 0.15 | 0.12 | 99 | 1012.9 |
| 20260903064557 | 60 | 211 | 1.0 | 3.0 | 0.02 | 0.15 | 0.12 | 99 | 1012.9 |
| 20260903064051 | 60 | 209 | 1.0 | 4.0 | 0.02 | 0.15 | 0.12 | 99 | 1012.9 |
| 20260903063541 | 60 | 209 | 1.0 | 4.0 | 0.02 | 0.15 | 0.12 | 99 | 1012.9 |
| 20260903063034 | 60 | 209 | 1.0 | 3.0 | 0.03 | 0.15 | 0.12 | 99 | 1012.9 |
| 20260903062529 | 60 | 209 | 1.0 | 2.0 | 0.03 | 0.15 | 0.12 | 99 | 1012.9 |
| 20260903062019 | 60 | 209 | 1.0 | 3.0 | 0.05 | 0.15 | 0.12 | 99 | 1013.1 |
| 20260903061513 | 60 | 207 | 1.0 | 4.0 | 0.07 | 0.15 | 0.12 | 98 | 1013.2 |
| 20260903061231 | 60 | 205 | 2.0 | 6.0 | 0.08 | 0.15 | 0.12 | 98 | 1013.0 |
| 20260903060457 | 60 | 208 | 2.0 | 6.0 | 0.08 | 0.14 | 0.12 | 98 | 1013.2 |
| 20260903055951 | 60 | 215 | 1.0 | 4.0 | 0.09 | 0.14 | 0.11 | 98 | 1013.3 |
| 20260903055446 | 60 | 211 | 1.0 | 4.0 | 0.09 | 0.14 | 0.11 | 98 | 1013.3 |
| 20260903054935 | 60 | 215 | 1.0 | 4.0 | 0.08 | 0.13 | 0.10 | 98 | 1013.4 |
| 20260903054429 | 60 | 207 | 1.0 | 3.0 | 0.08 | 0.13 | 0.10 | 98 | 1013.5 |
| 20260903053923 | 60 | 207 | 1.0 | 4.0 | 0.08 | 0.13 | 0.10 | 98 | 1013.4 |
| 20260903053414 | 60 | 207 | 1.0 | 4.0 | 0.08 | 0.13 | 0.10 | 98 | 1013.3 |
| 20260903052907 | 60 | 217 | 1.0 | 6.0 | 0.07 | 0.12 | 0.09 | 98 | 1013.3 |
| 20260903052401 | 60 | 218 | 2.0 | 6.0 | 0.07 | 0.11 | 0.08 | 98 | 1013.3 |
| 20260903051851 | 60 | 205 | 1.0 | 4.0 | 0.06 | 0.10 | 0.07 | 98 | 1013.5 |
| 20260903051345 | 60 | 190 | 1.0 | 5.0 | 0.04 | 0.08 | 0.05 | 98 | 1013.5 |
| 20260903050839 | 59 | 219 | 2.0 | 5.0 | 0.02 | 0.06 | 0.04 | 98 | 1013.5 |
| 20260903050329 | 59 | 214 | 2.0 | 4.0 | 0.02 | 0.06 | 0.03 | 98 | 1013.6 |
| 20260903045823 | 59 | 207 | 2.0 | 7.0 | 0.02 | 0.05 | 0.02 | 98 | 1013.6 |
| 20260903045317 | 59 | 219 | 2.0 | 7.0 | 0.02 | 0.05 | 0.02 | 98 | 1013.6 |
| 20260903044807 | 59 | 199 | 2.0 | 6.0 | 0.02 | 0.05 | 0.02 | 98 | 1013.4 |
| 20260903044302 | 59 | 181 | 2.0 | 9.0 | 0.02 | 0.05 | 0.02 | 98 | 1013.6 |
| 20260903043755 | 59 | 190 | 3.0 | 9.0 | 0.03 | 0.06 | 0.02 | 98 | 1013.7 |
| 20260903043245 | 59 | 179 | 3.0 | 8.0 | 0.03 | 0.06 | 0.02 | 98 | 1013.7 |
| 20260903042739 | 59 | 211 | 3.0 | 8.0 | 0.03 | 0.06 | 0.02 | 98 | 1013.5 |
| 20260903042451 | 59 | 207 | 3.0 | 7.0 | 0.02 | 0.05 | 0.01 | 98 | 1013.5 |
| 20260903041723 | 59 | 144 | 2.0 | 6.0 | 0.02 | 0.05 | 0.01 | 98 | 1013.6 |
| 20260903041217 | 59 | 205 | 3.0 | 9.0 | 0.02 | 0.06 | 0.01 | 98 | 1013.7 |
| 20260903040932 | 59 | 227 | 3.0 | 9.0 | 0.02 | 0.06 | 0.01 | 98 | 1013.4 |
| 20260903040201 | 59 | 203 | 3.0 | 10.0 | 0.02 | 0.05 | 0.01 | 98 | 1013.5 |
| 20260903035655 | 59 | 284 | 3.0 | 10.0 | 0.02 | 0.05 | 0.05 | 98 | 1013.4 |
| 20260903035149 | 59 | 182 | 3.0 | 9.0 | 0.02 | 0.05 | 0.05 | 98 | 1013.3 |
| 20260903034637 | 59 | 197 | 3.0 | 9.0 | 0.02 | 0.05 | 0.05 | 98 | 1013.4 |
| 20260903034131 | 59 | 184 | 3.0 | 8.0 | 0.02 | 0.05 | 0.05 | 98 | 1013.6 |
| 20260903033625 | 59 | 214 | 2.0 | 6.0 | 0.01 | 0.04 | 0.04 | 98 | 1013.8 |
| 20260903033120 | 59 | 217 | 2.0 | 6.0 | 0.01 | 0.04 | 0.04 | 98 | 1013.9 |
| 20260903032609 | 60 | 148 | 2.0 | 7.0 | 0.01 | 0.04 | 0.04 | 98 | 1013.8 |
| 20260903032103 | 60 | 202 | 2.0 | 7.0 | 0.01 | 0.04 | 0.04 | 98 | 1013.9 |
| 20260903031553 | 60 | 165 | 3.0 | 7.0 | 0.01 | 0.04 | 0.04 | 98 | 1013.8 |
| 20260903031047 | 60 | 228 | 3.0 | 7.0 | 0.02 | 0.04 | 0.04 | 98 | 1013.9 |
| 20260903030541 | 60 | 190 | 3.0 | 7.0 | 0.02 | 0.04 | 0.04 | 98 | 1014.0 |
| 20260903030034 | 60 | 187 | 3.0 | 9.0 | 0.01 | 0.03 | 0.03 | 98 | 1013.8 |
| 20260903025526 | 60 | 117 | 4.0 | 9.0 | 0.01 | 0.03 | 0.03 | 98 | 1014.0 |
| 20260903025240 | 60 | 204 | 3.0 | 9.0 | 0.01 | 0.03 | 0.03 | 98 | 1014.1 |
| 20260903024509 | 60 | 211 | 3.0 | 9.0 | 0.01 | 0.03 | 0.03 | 98 | 1014.4 |
| 20260903024008 | 60 | 211 | 3.0 | 8.0 | 0.01 | 0.03 | 0.03 | 97 | 1014.5 |
| 20260903023733 | 60 | 208 | 4.0 | 10.0 | 0.01 | 0.03 | 0.03 | 97 | 1014.6 |
| 20260903023005 | 60 | 203 | 3.0 | 10.0 | 0.01 | 0.03 | 0.03 | 97 | 1014.7 |
| 20260903022504 | 60 | 140 | 2.0 | 9.0 | 0.01 | 0.03 | 0.03 | 97 | 1014.7 |
| 20260903021223 | 60 | 220 | 3.0 | 9.0 | 0.00 | 0.02 | 0.02 | 97 | 1014.7 |
| 20260903020502 | 60 | 229 | 2.0 | 9.0 | 0.00 | 0.02 | 0.02 | 97 | 1015.0 |
| 20260903020004 | 60 | 235 | 2.0 | 8.0 | 0.00 | 0.02 | 0.02 | 97 | 1014.9 |
| 20260903015225 | 60 | 211 | 3.0 | 6.0 | 0.00 | 0.02 | 0.02 | 97 | 1015.0 |
| 20260903014726 | 60 | 157 | 2.0 | 6.0 | 0.00 | 0.02 | 0.02 | 97 | 1014.7 |
| 20260903014222 | 60 | 119 | 2.0 | 6.0 | 0.00 | 0.02 | 0.02 | 97 | 1014.9 |
| 20260903013500 | 60 | 249 | 3.0 | 7.0 | 0.00 | 0.02 | 0.02 | 96 | 1015.1 |
| 20260903013000 | 60 | 222 | 2.0 | 7.0 | 0.00 | 0.02 | 0.02 | 96 | 1015.4 |
| 20260903012717 | 61 | 242 | 1.0 | 6.0 | 0.00 | 0.02 | 0.02 | 96 | 1015.6 |
| 20260903011956 | 61 | 184 | 2.0 | 6.0 | 0.00 | 0.02 | 0.02 | 96 | 1015.7 |
| 20260903011456 | 61 | 209 | 2.0 | 8.0 | 0.00 | 0.02 | 0.02 | 96 | 1015.8 |
| 20260903010954 | 61 | 192 | 3.0 | 8.0 | 0.00 | 0.02 | 0.02 | 96 | 1015.9 |
| 20260903010454 | 61 | 235 | 3.0 | 7.0 | 0.00 | 0.02 | 0.02 | 96 | 1015.8 |
| 20260903005954 | 61 | 229 | 2.0 | 7.0 | 0.00 | 0.02 | 0.02 | 96 | 1015.9 |
| 20260903005454 | 61 | 209 | 2.0 | 7.0 | 0.00 | 0.02 | 0.02 | 96 | 1015.8 |
| 20260903004954 | 61 | 219 | 4.0 | 8.0 | 0.00 | 0.02 | 0.02 | 96 | 1015.8 |
| 20260903004452 | 61 | 224 | 5.0 | 16.0 | 0.00 | 0.02 | 0.02 | 96 | 1015.8 |
| 20260903003953 | 61 | 224 | 5.0 | 16.0 | 0.00 | 0.02 | 0.02 | 96 | 1015.9 |
| 20260903003452 | 61 | 198 | 5.0 | 13.0 | 0.00 | 0.02 | 0.02 | 96 | 1015.8 |
| 20260903002952 | 61 | 227 | 5.0 | 13.0 | 0.00 | 0.02 | 0.02 | 96 | 1015.8 |
| 20260903002452 | 61 | 300 | 5.0 | 14.0 | 0.00 | 0.02 | 0.02 | 96 | 1015.8 |
| 20260903001951 | 61 | 204 | 5.0 | 14.0 | 0.00 | 0.02 | 0.02 | 96 | 1015.7 |
| 20260903001711 | 61 | 214 | 4.0 | 12.0 | 0.00 | 0.02 | 0.02 | 96 | 1015.5 |
| 20260903000946 | 61 | 182 | 4.0 | 16.0 | 0.00 | 0.02 | 0.02 | 96 | 1015.5 |
| 20260903000446 | 61 | 175 | 5.0 | 16.0 | 0.00 | 0.02 | 0.02 | 96 | 1015.4 |
| 20260902235943 | 61 | 205 | 5.0 | 15.0 | 0.00 | 0.02 | 0.02 | 96 | 1015.3 |
| 20260902235444 | 61 | 211 | 6.0 | 16.0 | 0.00 | 0.02 | 0.02 | 96 | 1015.2 |
| 20260902235209 | 61 | 217 | 5.0 | 16.0 | 0.00 | 0.02 | 0.02 | 96 | 1015.0 |
| 20260902234444 | 61 | 207 | 4.0 | 12.0 | 0.00 | 0.02 | 0.02 | 97 | 1014.9 |
| 20260902233944 | 61 | 175 | 4.0 | 12.0 | 0.00 | 0.02 | 0.02 | 97 | 1015.1 |
| 20260902233441 | 61 | 227 | 4.0 | 12.0 | 0.00 | 0.02 | 0.02 | 97 | 1015.1 |
| 20260902233203 | 61 | 201 | 3.0 | 7.0 | 0.00 | 0.02 | 0.02 | 97 | 1015.1 |
| 20260902232708 | 61 | 214 | 2.0 | 6.0 | 0.00 | 0.02 | 0.02 | 97 | 1015.3 |
| 20260902231939 | 61 | 194 | 2.0 | 8.0 | 0.00 | 0.02 | 0.02 | 97 | 1015.3 |
| 20260902231440 | 61 | 234 | 3.0 | 8.0 | 0.00 | 0.02 | 0.02 | 97 | 1015.5 |
| 20260902230940 | 61 | 189 | 3.0 | 9.0 | 0.00 | 0.02 | 0.02 | 97 | 1015.6 |
| 20260902230439 | 61 | 225 | 3.0 | 9.0 | 0.00 | 0.02 | 0.02 | 97 | 1015.5 |
| 20260902230201 | 61 | 240 | 2.0 | 8.0 | 0.00 | 0.02 | 0.02 | 96 | 1015.5 |
| 20260902225433 | 61 | 175 | 2.0 | 8.0 | 0.00 | 0.02 | 0.02 | 96 | 1015.4 |
| 20260902224928 | 61 | 208 | 2.0 | 7.0 | 0.00 | 0.02 | 0.02 | 96 | 1015.6 |
| 20260902224426 | 61 | 194 | 4.0 | 12.0 | 0.00 | 0.02 | 0.02 | 96 | 1015.7 |
| 20260902223926 | 61 | 204 | 4.0 | 12.0 | 0.00 | 0.02 | 0.02 | 96 | 1015.8 |
| 20260902223426 | 61 | 202 | 4.0 | 11.0 | 0.00 | 0.02 | 0.02 | 96 | 1016.2 |
| 20260902222926 | 61 | 220 | 3.0 | 10.0 | 0.00 | 0.02 | 0.02 | 96 | 1016.1 |
| 20260902222647 | 61 | 180 | 3.0 | 11.0 | 0.00 | 0.02 | 0.02 | 96 | 1015.9 |
| 20260902221926 | 61 | 123 | 4.0 | 11.0 | 0.00 | 0.02 | 0.02 | 96 | 1016.1 |
| 20260902221431 | 61 | 190 | 3.0 | 11.0 | 0.00 | 0.02 | 0.02 | 95 | 1016.6 |
| 20260902220926 | 61 | 210 | 2.0 | 9.0 | 0.00 | 0.02 | 0.02 | 95 | 1016.7 |
| 20260902220426 | 61 | 213 | 2.0 | 12.0 | 0.00 | 0.02 | 0.02 | 95 | 1017.1 |
| 20260902220149 | 61 | 221 | 3.0 | 12.0 | 0.00 | 0.02 | 0.02 | 95 | 1017.2 |
| 20260902215424 | 61 | 243 | 2.0 | 7.0 | 0.00 | 0.02 | 0.02 | 95 | 1017.2 |
| 20260902214923 | 61 | 213 | 2.0 | 7.0 | 0.00 | 0.02 | 0.02 | 95 | 1017.3 |
| 20260902214421 | 61 | 193 | 2.0 | 7.0 | 0.00 | 0.02 | 0.02 | 95 | 1017.5 |
| 20260902213911 | 61 | 126 | 2.0 | 11.0 | 0.00 | 0.02 | 0.02 | 95 | 1017.6 |
| 20260902213412 | 61 | 192 | 1.0 | 11.0 | 0.00 | 0.02 | 0.02 | 95 | 1017.7 |
| 20260902212909 | 61 | 228 | 2.0 | 6.0 | 0.00 | 0.02 | 0.02 | 95 | 1017.8 |
| 20260902212628 | 61 | 180 | 2.0 | 6.0 | 0.00 | 0.02 | 0.02 | 95 | 1017.7 |
| 20260902211909 | 61 | 201 | 2.0 | 5.0 | 0.00 | 0.02 | 0.02 | 95 | 1017.6 |
| 20260902211409 | 61 | 228 | 2.0 | 7.0 | 0.00 | 0.02 | 0.02 | 95 | 1017.4 |
| 20260902210910 | 61 | 228 | 2.0 | 7.0 | 0.00 | 0.02 | 0.02 | 95 | 1017.4 |
| 20260902210634 | 61 | 214 | 3.0 | 7.0 | 0.00 | 0.02 | 0.02 | 95 | 1017.4 |
| 20260902205909 | 61 | 225 | 3.0 | 8.0 | 0.00 | 0.02 | 0.02 | 95 | 1017.4 |
| 20260902205405 | 61 | 173 | 3.0 | 9.0 | 0.00 | 0.02 | 0.02 | 95 | 1017.2 |
| 20260902204405 | 61 | 213 | 4.0 | 12.0 | 0.00 | 0.02 | 0.02 | 95 | 1017.5 |
| 20260902204131 | 61 | 246 | 3.0 | 14.0 | 0.00 | 0.02 | 0.02 | 95 | 1017.5 |
| 20260902203406 | 61 | 217 | 3.0 | 14.0 | 0.00 | 0.02 | 0.02 | 94 | 1017.5 |
| 20260902202905 | 61 | 215 | 3.0 | 9.0 | 0.00 | 0.02 | 0.02 | 94 | 1017.5 |
| 20260902202406 | 61 | 224 | 2.0 | 7.0 | 0.00 | 0.02 | 0.02 | 95 | 1017.4 |
| 20260902201905 | 62 | 207 | 1.0 | 7.0 | 0.00 | 0.02 | 0.02 | 95 | 1017.4 |
| 20260902201628 | 62 | 210 | 2.0 | 8.0 | 0.00 | 0.02 | 0.02 | 95 | 1017.3 |
| 20260902200906 | 62 | 215 | 3.0 | 8.0 | 0.00 | 0.02 | 0.02 | 94 | 1017.5 |
| 20260902200405 | 62 | 211 | 3.0 | 9.0 | 0.00 | 0.02 | 0.02 | 95 | 1017.7 |
| 20260902195905 | 61 | 193 | 3.0 | 9.0 | 0.00 | 0.02 | 0.02 | 96 | 1017.7 |
| 20260902195405 | 61 | 224 | 3.0 | 7.0 | 0.00 | 0.02 | 0.02 | 96 | 1017.8 |